Location: Unspecified
(0.0000°N, 0.0000°E)
Time: 21:14:34
(UTC+00:00)

DMSP 5D-3 F18 (USA 210) - Pass Details

Date: 24 February 2019
Orbit: 841 x 856 km, 98.6° (Epoch: 22 March)

Event Time Altitude Azimuth Distance (km) Brightness Sun altitude
Rises 18:45:46 0° 208° (SSW) 3,398 8.4 -8.0°
Reaches altitude 10° 18:50:40 10° 248° (WSW) 2,463 8.6 -9.2°
Maximum altitude 18:51:31 10° 257° (WSW) 2,438 8.8 -9.4°
Drops below altitude 10° 18:52:22 10° 266° (W) 2,463 8.8 -9.7°
Sets 18:57:18 0° 305° (NW) 3,398 8.6 -10.9°
